This demonstration page uses our WeatherBlox Daily Observations layout. Learn more.

Left ArrowRight Arrow

41.55636, -103.73856

Hourly Observations for December 23, 2017

Temp ( °F °C ) Dew Point ( °F °C ) Humidity (%) Winds ( mph kmh ) Pressure ( in mb ) Visibility ( mi km ) Precip ( " mm )
12:38 am 00:38 Mostly Cloudy with Light Snow 18 -8 16 -9 93 93 SE 9 15 30.36 1028 1 2 N/A
12:53 am 00:53 Mostly Cloudy with Light Snow 17 -8.3 15 -9.4 92 92 SE 9 15 30.23 1024 1 2 0.04 1.02
1:40 am 01:40 Mostly Cloudy with Light Snow 18 -8 16 -9 93 93 ESE 10 17 30.36 1028 1 1 N/A
1:53 am 01:53 Mostly Cloudy with Light Snow 18 -7.8 15 -9.4 88 88 SE 10 17 30.21 1023 1 2 0.04 1.02
2:10 am 02:10 Mostly Cloudy with Light Snow 17 -8.3 15 -9.4 92 92 ESE 10 17 30.36 1028 1 1 0.01 0.25
2:17 am 02:17 Mostly Cloudy with Light Snow 17 -8.3 15 -9.4 92 92 ESE 10 17 30.36 1028 1 2 0.01 0.25
2:33 am 02:33 Mostly Cloudy with Light Snow 17 -8.3 15 -9.4 92 92 E 10 17 30.36 1028 1 2 0.01 0.25
2:53 am 02:53 Cloudy with Light Snow 17 -8.3 15 -9.4 92 92 E 9 15 30.20 1023 2 3 0.02 0.51
3:53 am 03:53 Cloudy with Light Snow 17 -8.3 15 -9.4 92 92 E 12 19 30.19 1022 2 2 0.02 0.51
4:30 am 04:30 Cloudy with Light Snow 18 -8 14 -10 86 86 E 14 22 30.27 1025 3 4 N/A
4:53 am 04:53 Cloudy with Light Snow 17 -8.3 14 -10 88 88 E 14 22 30.19 1023 2 2 0.02 0.51
5:53 am 05:53 Cloudy with Light Snow 16 -8.9 13 -10.6 88 88 E 15 24 30.20 1023 2 3 0.02 0.51
6:15 am 06:15 Cloudy with Light Snow 16 -8.9 13 -10.6 88 88 E 15 24 30.33 1027 2 3 0.01 0.25
6:22 am 06:22 Cloudy with Light Snow 16 -9 12 -11 86 86 E 14 22 30.33 1027 3 5 N/A
6:53 am 06:53 Cloudy with Mist and Fog 16 -8.9 12 -11.1 84 84 E 13 20 30.21 1023 5 8 0.01 0.25
7:53 am 07:53 Cloudy with Mist and Fog 15 -9.4 12 -11.1 88 88 E 14 22 30.22 1023 5 8 N/A
8:53 am 08:53 Cloudy with Light Snow 16 -8.9 12 -11.1 84 84 E 12 19 30.23 1024 5 8 N/A
9:02 am 09:02 Cloudy with Light Snow 16 -9 12 -11 86 86 E 13 20 30.36 1028 2 3 N/A
9:22 am 09:22 Cloudy with Light Snow 16 -9 12 -11 86 86 E 15 24 30.33 1027 2 3 N/A
9:41 am 09:41 Cloudy with Light Snow 15 -9.4 11 -11.7 84 84 E 15 24 30.33 1027 3 5 N/A
9:53 am 09:53 Cloudy with Light Snow 15 -9.4 11 -11.7 84 84 E 14 22 30.23 1024 4 6 N/A
10:06 am 10:06 Cloudy with Light Snow 15 -9.4 11 -11.7 84 84 E 15 24 30.33 1027 2 3 N/A
10:10 am 10:10 Cloudy with Light Snow 16 -9 10 -12 79 79 E 14 22 30.33 1027 2 3 N/A
10:34 am 10:34 Cloudy with Light Snow 15 -9.4 12 -11.1 88 88 ESE 12 19 30.33 1027 1 2 0.01 0.25
10:44 am 10:44 Cloudy with Light Snow 16 -9 12 -11 86 86 E 15 24 30.33 1027 1 1 N/A
10:53 am 10:53 Cloudy with Light Snow 15 -9.4 12 -11.1 88 88 E 13 20 30.21 1023 1 2 0.02 0.51
11:29 am 11:29 Mostly Cloudy with Light Snow 15 -9.4 12 -11.1 88 88 E 10 17 30.30 1026 1 1 0.01 0.25
11:53 am 11:53 Mostly Cloudy with Light Snow 16 -8.9 12 -11.1 84 84 E 10 17 30.17 1022 1 1 0.03 0.76
12:41 pm 12:41 Mostly Cloudy with Snow 15 -9.4 13 -10.6 91 91 ESE 9 15 30.27 1025 0 0 0.03 0.76
12:53 pm 12:53 Mostly Cloudy with Snow 16 -8.9 13 -10.6 88 88 E 10 17 30.14 1021 1 1 0.04 1.02
1:11 pm 13:11 Mostly Cloudy with Heavy Snow 16 -8.9 13 -10.6 88 88 E 8 13 30.21 1023 0 0 0.02 0.51
1:33 pm 13:33 Mostly Cloudy with Snow 16 -8.9 13 -10.6 88 88 E 9 15 30.21 1023 1 1 0.04 1.02
1:53 pm 13:53 Cloudy with Light Snow 15 -9.4 12 -11.1 88 88 E 8 13 30.14 1021 1 2 0.04 1.02
2:04 pm 14:04 Cloudy with Snow 16 -9 12 -11 86 86 ENE 9 15 30.24 1024 1 1 N/A
2:14 pm 14:14 Mostly Cloudy with Snow 16 -9 12 -11 86 86 NE 9 15 30.24 1024 0 0 N/A
2:22 pm 14:22 Mostly Cloudy with Snow 16 -9 12 -11 86 86 NE 8 13 30.24 1024 1 1 N/A
2:30 pm 14:30 Mostly Cloudy with Heavy Snow 15 -9.4 12 -11.1 88 88 NE 9 15 30.27 1025 0 0 0.03 0.76
2:53 pm 14:53 Mostly Cloudy with Snow 14 -10 11 -11.7 88 88 NNE 13 20 30.16 1022 0 0 0.06 1.52
3:09 pm 15:09 Mostly Cloudy with Snow 14 -10 10 -12.2 84 84 NE 14 22 30.27 1025 1 1 0.01 0.25
3:19 pm 15:19 Mostly Cloudy with Snow 14 -10 10 -12.2 84 84 NE 13 20 30.27 1025 1 1 0.01 0.25
3:53 pm 15:53 Mostly Cloudy with Heavy Snow 13 -10.6 10 -12.2 88 88 NNE 16 26 30.19 1023 0 0 0.03 0.76
4:05 pm 16:05 Mostly Cloudy with Light Snow 13 -10.6 10 -12.2 88 88 NNE 13 20 30.33 1027 1 1 N/A
4:49 pm 16:49 Mostly Cloudy with Light Snow 10 -12 7 -14 85 85 N 17 28 30.39 1029 1 1 0.02 0.51
4:53 pm 16:53 Mostly Cloudy with Light Snow 11 -11.7 7 -13.9 84 84 N 17 28 30.26 1025 1 1 0.02 0.51
5:03 pm 17:03 Mostly Cloudy with Light Snow 11 -11.7 7 -13.9 84 84 N 16 26 30.42 1030 1 2 N/A
5:19 pm 17:19 Mostly Cloudy with Light Snow 11 -11.7 7 -13.9 84 84 NNE 21 33 30.42 1030 1 2 N/A
5:37 pm 17:37 Mostly Cloudy with Light Snow 11 -11.7 6 -14.4 81 81 N 18 30 30.42 1030 1 2 0.01 0.25
5:53 pm 17:53 Cloudy with Light Snow 10 -12.2 6 -14.4 84 84 N 15 24 30.31 1026 1 2 0.01 0.25
6:48 pm 18:48 Cloudy with Light Snow 10 -12 7 -14 85 85 NNW 8 13 30.45 1031 2 3 N/A
6:53 pm 18:53 Cloudy with Light Snow 10 -12.2 7 -13.9 87 87 NW 7 11 30.35 1028 2 3 0.01 0.25
7:14 pm 19:14 Cloudy with Light Snow 10 -12 7 -14 85 85 WNW 8 13 30.48 1032 2 3 N/A
7:27 pm 19:27 Cloudy with Light Snow 10 -12.2 7 -13.9 87 87 NW 8 13 30.48 1032 1 2 0.01 0.25
7:53 pm 19:53 Cloudy with Light Snow 10 -12.2 6 -14.4 84 84 NW 10 17 30.37 1029 2 3 0.02 0.51
8:05 pm 20:05 Cloudy with Light Snow 10 -12.2 7 -13.9 87 87 WNW 9 15 30.48 1032 2 3 N/A
8:21 pm 20:21 Cloudy with Light Snow 10 -12.2 6 -14.4 84 84 WNW 10 17 30.53 1034 3 4 N/A
8:27 pm 20:27 Cloudy with Light Snow 10 -12.2 6 -14.4 84 84 WNW 8 13 30.53 1034 3 5 N/A
8:39 pm 20:39 Cloudy with Light Snow 9 -12.8 6 -14.4 88 88 WNW 6 9 30.50 1033 2 3 N/A
8:53 pm 20:53 Cloudy with Light Snow 8 -13.3 6 -14.4 92 92 W 10 17 30.40 1029 3 4 N/A
9:00 pm 21:00 Cloudy with Light Snow 9 -13 7 -14 92 92 W 10 17 30.53 1034 3 5 N/A
9:53 pm 21:53 Cloudy 11 -11.7 5 -15 77 77 WNW 12 19 30.41 1030 9 14 N/A
10:53 pm 22:53 Cloudy 10 -12.2 4 -15.6 76 76 WNW 7 11 30.43 1031 10 16 N/A
11:53 pm 23:53 Clear 5 -15 -1 -18.3 76 76 WNW 12 19 30.44 1031 10 16 N/A

Powered by AerisWeather